CW1035 Weather Reports


Display with metric or nautical units.
time (UTC)temp
F
wind
direction
speed
MPH
gust
MPH
rain 1hr
in
rain 24hr
in
rain mn
in
humidity
%
barometer
mb
20260505233154 58 340 5.0 7.0 0.00 0.00 0.00 82 1016.4
20260505232654 58 297 5.0 7.0 0.00 0.00 0.00 82 1016.4
20260505232154 58 287 6.0 6.0 0.00 0.00 0.00 82 1016.4
20260505231654 58 316 5.0 8.0 0.00 0.00 0.00 81 1016.4
20260505231153 58 314 5.0 8.0 0.00 0.00 0.00 83 1016.5
20260505230154 57 333 3.0 7.0 0.00 0.00 0.00 84 1016.5
20260505225654 57 335 3.0 8.0 0.00 0.00 0.00 83 1016.6
20260505225153 57 238 2.0 8.0 0.00 0.00 0.00 83 1016.6
20260505224153 58 274 1.0 6.0 0.00 0.00 0.00 82 1016.7
20260505223153 58 335 1.0 6.0 0.00 0.00 0.00 82 1016.7
20260505222653 58 320 5.0 6.0 0.00 0.00 0.00 82 1016.7
20260505222153 58 1 4.0 6.0 0.00 0.00 0.00 83 1016.7
20260505221652 58 269 5.0 6.0 0.00 0.00 0.00 83 1016.7
20260505221152 57 280 5.0 5.0 0.00 0.00 0.00 84 1016.8
20260505220652 57 338 3.0 5.0 0.00 0.00 0.00 83 1016.8
20260505220153 57 328 2.0 6.0 0.00 0.00 0.00 84 1016.8
20260505215652 57 289 3.0 6.0 0.00 0.00 0.00 84 1016.9
20260505215152 57 308 3.0 6.0 0.00 0.00 0.00 84 1017.0
20260505214652 58 265 1.0 6.0 0.00 0.00 0.00 83 1017.1
20260505214152 57 342 1.0 6.0 0.00 0.00 0.00 84 1017.1
20260505213152 58 239 0.0 4.0 0.00 0.00 0.00 83 1017.2
20260505212651 58 266 1.0 4.0 0.00 0.00 0.00 84 1017.2
20260505211651 57 39 2.0 6.0 0.00 0.00 0.00 86 1017.1
20260505211151 57 285 2.0 6.0 0.00 0.00 0.00 85 1017.2
20260505210652 56 269 0.0 6.0 0.00 0.00 0.00 87 1017.1
20260505210151 56 287 3.0 6.0 0.00 0.00 0.00 87 1017.1
20260505205151 55 259 2.0 6.0 0.00 0.00 0.00 87 1017.0
20260505204651 56 266 2.0 6.0 0.00 0.00 0.00 87 1017.2
20260505204151 55 268 0.0 4.0 0.00 0.00 0.00 88 1017.2
20260505203651 55 291 2.0 5.0 0.00 0.00 0.00 88 1017.1
20260505203151 55 317 1.0 5.0 0.00 0.00 0.00 89 1017.2
20260505201651 55 300 1.0 4.0 0.00 0.00 0.00 89 1017.2
20260505201150 55 304 1.0 4.0 0.00 0.00 0.00 89 1017.1
20260505200651 54 266 0.0 4.0 0.00 0.00 0.00 90 1017.1
20260505200150 54 279 1.0 4.0 0.00 0.00 0.00 90 1017.1
20260505195650 54 274 1.0 5.0 0.00 0.00 0.00 90 1017.1
20260505195150 54 319 2.0 5.0 0.00 0.00 0.00 91 1017.1
20260505194150 53 266 4.0 6.0 0.00 0.00 0.00 92 1017.2
20260505193649 53 327 2.0 6.0 0.00 0.00 0.00 92 1017.2
20260505192650 53 280 4.0 5.0 0.00 0.00 0.00 92 1017.2
20260505191649 53 43 1.0 5.0 0.00 0.00 0.00 93 1017.1
20260505191149 53 269 1.0 5.0 0.00 0.00 0.00 93 1017.1
20260505190649 52 276 3.0 6.0 0.00 0.00 0.00 94 1017.0
20260505190149 52 309 0.0 6.0 0.00 0.00 0.00 93 1017.0
20260505185649 52 297 2.0 6.0 0.00 0.00 0.00 93 1017.0
20260505185149 52 278 1.0 6.0 0.00 0.00 0.00 93 1017.0
20260505184649 52 293 2.0 6.0 0.00 0.00 0.00 93 1017.1
20260505184148 52 279 4.0 6.0 0.00 0.00 0.00 93 1017.1
20260505183648 52 296 3.0 6.0 0.00 0.00 0.00 93 1017.1
20260505183148 52 272 3.0 5.0 0.00 0.00 0.00 93 1017.1
20260505182648 52 300 2.0 6.0 0.00 0.00 0.00 93 1017.1
20260505182148 52 274 1.0 6.0 0.00 0.00 0.00 93 1017.0
20260505181648 52 283 2.0 5.0 0.00 0.00 0.00 92 1017.0
20260505181148 52 294 2.0 5.0 0.00 0.00 0.00 92 1017.0
20260505180648 53 283 3.0 5.0 0.00 0.00 0.00 92 1016.9
20260505180148 53 296 1.0 5.0 0.00 0.00 0.00 92 1016.8
20260505174648 53 285 2.0 3.0 0.00 0.00 0.00 91 1016.9
20260505174148 53 276 3.0 4.0 0.00 0.00 0.00 91 1016.9
20260505173648 53 308 0.0 4.0 0.00 0.00 0.00 91 1016.8
20260505173147 53 262 0.0 3.0 0.00 0.00 0.00 91 1016.8
20260505172647 53 354 0.0 3.0 0.00 0.00 0.00 90 1016.7
20260505172147 54 340 1.0 4.0 0.00 0.00 0.00 89 1016.7
20260505171647 54 191 1.0 6.0 0.00 0.00 0.00 90 1016.7
20260505170647 54 93 2.0 4.0 0.00 0.00 0.00 91 1016.8
20260505170147 54 131 1.0 4.0 0.00 0.00 0.00 91 1016.7
20260505165147 54 166 3.0 5.0 0.00 0.00 0.00 92 1016.8
20260505164647 54 168 1.0 5.0 0.00 0.00 0.00 92 1016.7
20260505163647 54 145 2.0 4.0 0.00 0.00 0.00 92 1016.6
20260505163147 54 136 1.0 4.0 0.00 0.00 0.00 93 1016.7
20260505162646 54 153 1.0 3.0 0.00 0.00 0.00 93 1016.6
20260505162146 53 149 0.0 5.0 0.00 0.00 0.00 94 1016.6
20260505161146 53 123 2.0 4.0 0.00 0.00 0.00 94 1016.5
20260505160646 53 108 0.0 3.0 0.00 0.00 0.00 94 1016.6
20260505160146 53 101 0.0 3.0 0.00 0.00 0.00 94 1016.5
20260505152645 52 101 0.0 0.0 0.00 0.00 0.00 95 1016.4
20260505151645 52 101 0.0 0.0 0.00 0.00 0.00 95 1016.3
20260505150645 52 101 0.0 0.0 0.00 0.00 0.00 95 1016.2
20260505150145 52 101 0.0 0.0 0.00 0.00 0.00 95 1016.1
20260505140644 51 101 0.0 0.0 0.00 0.00 0.00 94 1015.7
20260505140143 51 138 0.0 0.0 0.00 0.00 0.00 94 1015.7
20260505130143 51 165 0.0 1.0 0.00 0.00 0.00 94 1014.9
20260505124642 51 151 2.0 2.0 0.00 0.00 0.00 94 1014.8
20260505124142 51 252 0.0 0.0 0.00 0.00 0.00 94 1014.9
20260505123642 51 252 0.0 0.0 0.00 0.00 0.00 94 1014.8
20260505123142 50 252 0.0 0.0 0.00 0.00 0.00 94 1014.7
20260505122642 50 252 0.0 1.0 0.00 0.00 0.00 94 1014.7
20260505122142 50 252 0.0 1.0 0.00 0.00 0.00 94 1014.6
20260505121642 50 252 0.0 0.0 0.00 0.00 0.00 94 1014.6
20260505121141 50 252 0.0 0.0 0.00 0.00 0.00 94 1014.5
20260505120641 50 252 0.0 0.0 0.00 0.00 0.00 94 1014.5
20260505120141 50 252 0.0 1.0 0.00 0.00 0.00 94 1014.5
20260505115141 50 252 0.0 1.0 0.00 0.00 0.00 94 1014.4
20260505114641 50 252 0.0 1.0 0.00 0.00 0.00 94 1014.4
20260505114142 50 252 0.0 1.0 0.00 0.00 0.00 94 1014.4
20260505113641 50 252 0.0 1.0 0.00 0.00 0.00 94 1014.4
20260505113141 50 252 0.0 0.0 0.00 0.00 0.00 94 1014.4
20260505112141 50 252 0.0 1.0 0.00 0.00 0.00 94 1014.3
20260505111640 50 252 0.0 1.0 0.00 0.00 0.00 94 1014.2
20260505111141 50 252 0.0 0.0 0.00 0.00 0.00 94 1014.2
20260505110641 50 252 0.0 1.0 0.00 0.00 0.00 94 1014.1
20260505110140 50 252 0.0 1.0 0.00 0.00 0.00 94 1014.1
20260505101640 50 271 0.0 0.0 0.00 0.00 0.00 93 1013.7
20260505100140 50 271 0.0 0.0 0.00 0.00 0.00 93 1013.7
20260505095639 50 271 0.0 0.0 0.00 0.00 0.00 93 1013.7
20260505095140 50 271 0.0 2.0 0.00 0.00 0.00 93 1013.7
20260505094639 50 271 0.0 3.0 0.00 0.00 0.00 93 1013.7
20260505093639 50 279 2.0 3.0 0.00 0.00 0.00 93 1013.5
20260505093139 50 269 2.0 3.0 0.00 0.00 0.00 93 1013.5
20260505092639 50 285 3.0 3.0 0.00 0.00 0.00 93 1013.5
20260505091639 50 268 3.0 4.0 0.00 0.00 0.00 93 1013.5
20260505091139 50 280 2.0 3.0 0.00 0.00 0.00 93 1013.5
20260505090638 50 274 1.0 4.0 0.00 0.00 0.00 92 1013.3
20260505090138 50 283 2.0 4.0 0.00 0.00 0.00 92 1013.3
20260505085639 51 287 2.0 3.0 0.00 0.00 0.00 92 1013.3
20260505085138 51 274 0.0 3.0 0.00 0.00 0.00 92 1013.2
20260505084638 50 276 1.0 3.0 0.00 0.00 0.00 92 1013.1
20260505084138 50 276 2.0 4.0 0.00 0.00 0.00 92 1013.1
20260505083138 51 261 3.0 5.0 0.00 0.00 0.00 92 1013.1
20260505082638 51 281 3.0 4.0 0.00 0.00 0.00 92 1013.1
20260505082138 51 276 2.0 4.0 0.00 0.00 0.00 92 1013.0
20260505081637 51 266 2.0 4.0 0.00 0.00 0.00 92 1013.0
20260505081137 51 266 1.0 4.0 0.00 0.00 0.00 92 1013.0
20260505080637 51 285 2.0 5.0 0.00 0.00 0.00 92 1013.0
20260505080137 51 271 2.0 5.0 0.00 0.00 0.00 92 1013.0
20260505075637 51 270 2.0 5.0 0.00 0.00 0.00 91 1012.9
20260505075137 51 285 3.0 5.0 0.00 0.00 0.00 91 1012.9
20260505074137 51 285 3.0 3.0 0.00 0.00 0.00 91 1012.8
20260505073637 51 284 1.0 3.0 0.00 0.00 0.00 91 1012.8
20260505073136 51 278 2.0 3.0 0.00 0.00 0.00 90 1012.8
20260505072637 51 278 2.0 3.0 0.00 0.00 0.00 90 1012.7
20260505072136 51 283 2.0 3.0 0.00 0.00 0.00 90 1012.6
20260505071636 51 283 2.0 3.0 0.00 0.00 0.00 90 1012.6
20260505071136 51 283 1.0 3.0 0.00 0.00 0.00 90 1012.5
20260505070636 52 283 0.0 5.0 0.00 0.00 0.00 90 1012.5
20260505065706 51 280 2.0 5.0 0.00 0.00 0.00 90 1012.4
20260505065136 52 285 3.0 4.0 0.00 0.00 0.00 90 1012.3
20260505064706 52 278 2.0 5.0 0.00 0.00 0.00 89 1012.3
20260505064206 52 274 3.0 5.0 0.00 0.00 0.00 89 1012.2
20260505063206 52 283 4.0 8.0 0.00 0.00 0.00 89 1012.1
20260505062635 52 276 5.0 8.0 0.00 0.00 0.00 89 1012.1
20260505062205 52 263 3.0 8.0 0.00 0.00 0.00 88 1012.1
20260505061705 52 276 4.0 8.0 0.00 0.00 0.00 88 1012.0
20260505061135 53 263 5.0 8.0 0.00 0.00 0.00 88 1011.9
20260505060205 53 278 3.0 6.0 0.00 0.00 0.00 87 1011.8
20260505055705 53 252 2.0 6.0 0.00 0.00 0.00 87 1011.6
20260505055135 53 278 4.0 6.0 0.00 0.00 0.00 87 1011.6
20260505054635 53 263 3.0 6.0 0.00 0.00 0.00 86 1011.6
20260505054205 53 252 4.0 6.0 0.00 0.00 0.00 86 1011.6
20260505053705 53 262 3.0 6.0 0.00 0.00 0.00 85 1011.5
20260505053204 54 275 4.0 6.0 0.00 0.00 0.00 85 1011.5
20260505052705 54 282 4.0 5.0 0.00 0.00 0.00 85 1011.5
20260505052204 54 280 3.0 5.0 0.00 0.00 0.00 85 1011.4
20260505051704 54 266 2.0 5.0 0.00 0.00 0.00 84 1011.3
20260505051204 54 266 1.0 5.0 0.00 0.00 0.00 84 1011.3
20260505050704 54 281 3.0 6.0 0.00 0.00 0.00 84 1011.3
20260505050204 54 289 3.0 6.0 0.00 0.00 0.00 83 1011.2
20260505041703 56 256 3.0 6.0 0.00 0.00 0.00 79 1010.7
20260505040703 57 266 3.0 6.0 0.00 0.00 0.00 79 1010.7
20260505040203 57 284 3.0 7.0 0.00 0.00 0.00 78 1010.7
20260505035703 57 255 5.0 8.0 0.00 0.00 0.00 78 1010.5
20260505035202 57 276 3.0 8.0 0.00 0.00 0.00 78 1010.6
20260505034703 57 267 5.0 8.0 0.00 0.00 0.00 77 1010.4
20260505034202 58 269 3.0 10.0 0.00 0.00 0.00 77 1010.4
20260505033702 58 281 6.0 10.0 0.00 0.00 0.00 76 1010.2
20260505033202 58 269 5.0 9.0 0.00 0.00 0.00 75 1010.3
20260505032702 58 261 3.0 9.0 0.00 0.00 0.00 75 1010.2
20260505032202 59 255 2.0 10.0 0.00 0.00 0.00 74 1010.1
20260505031202 60 246 10.0 10.0 0.00 0.00 0.00 73 1010.1
20260505030702 60 257 5.0 9.0 0.00 0.00 0.00 72 1010.0
20260505030202 61 217 3.0 12.0 0.00 0.00 0.00 71 1010.0
20260505025702 61 278 5.0 12.0 0.00 0.00 0.00 69 1009.9
20260505024702 62 275 7.0 11.0 0.00 0.00 0.00 68 1009.7
20260505024201 62 253 4.0 11.0 0.00 0.00 0.00 67 1009.7
20260505023702 63 276 3.0 10.0 0.00 0.00 0.00 67 1009.7
20260505022702 63 247 0.0 12.0 0.00 0.00 0.00 67 1009.9
20260505022201 63 262 5.0 12.0 0.00 0.00 0.00 66 1009.9
20260505021701 63 238 4.0 14.0 0.00 0.00 0.00 65 1009.9
20260505021201 63 278 5.0 14.0 0.00 0.00 0.00 65 1010.0
20260505020701 64 236 3.0 13.0 0.00 0.00 0.00 64 1010.0
20260505015701 65 263 3.0 16.0 0.00 0.00 0.00 64 1010.1
20260505015200 65 255 4.0 16.0 0.00 0.00 0.00 64 1010.1
20260505014200 66 311 6.0 15.0 0.00 0.00 0.00 63 1010.1
20260505013701 66 248 7.0 13.0 0.00 0.00 0.00 61 1010.1
20260505013200 66 266 4.0 14.0 0.00 0.00 0.00 62 1010.2
20260505012700 66 264 7.0 14.0 0.00 0.00 0.00 61 1010.2
20260505012200 67 290 4.0 15.0 0.00 0.00 0.00 61 1010.2
20260505011200 67 277 9.0 14.0 0.00 0.00 0.00 61 1010.3
20260505010700 67 344 9.0 17.0 0.00 0.00 0.00 61 1010.4
20260505010200 67 307 8.0 17.0 0.00 0.00 0.00 60 1010.4
20260505005700 67 318 8.0 16.0 0.00 0.00 0.00 60 1010.4
20260505005159 67 298 2.0 20.0 0.00 0.00 0.00 60 1010.4
20260505004659 67 151 3.0 20.0 0.00 0.00 0.00 61 1010.4
20260505004159 68 289 5.0 14.0 0.00 0.00 0.00 60 1010.4
20260505003700 68 273 8.0 15.0 0.00 0.00 0.00 61 1010.4
20260505003159 68 249 3.0 19.0 0.00 0.00 0.00 60 1010.7
20260505002700 68 281 5.0 19.0 0.00 0.00 0.00 59 1010.6
20260505002200 69 288 4.0 10.0 0.00 0.00 0.00 59 1010.6
20260505001659 69 258 4.0 11.0 0.00 0.00 0.00 59 1010.8
20260505001159 68 285 4.0 12.0 0.00 0.00 0.00 59 1010.7
20260505000659 68 234 4.0 12.0 0.00 0.00 0.00 59 1010.6
20260505000159 68 281 3.0 13.0 0.00 0.00 0.00 59 1010.6
20260504235659 68 293 5.0 13.0 0.00 0.00 0.00 59 1010.7
20260504235159 68 259 4.0 12.0 0.00 0.00 0.00 58 1010.6
20260504234659 68 246 3.0 11.0 0.00 0.00 0.00 58 1010.7
20260504234158 68 292 6.0 11.0 0.00 0.00 0.00 57 1010.7